View from above orbital plane
|
View from above satellite
|
Ground track
|
The orbit data is extracted from the following two-line orbital elements,
1 40024U 14033Q 21015.75917438 .00000465 00000-0 53757-4 0 9990
2 40024 97.9418 310.1291 0011287 318.5089 41.5271 14.90275378356853
Epoch (UTC): | 15 January 2021 18:13:12 |
Eccentricity: | 0.0011287 |
inclination: | 97.9418° |
perigee height: | 589 km |
apogee height: | 605 km |
right ascension of ascending node: | 310.1291° |
argument of perigee: | 318.5089° |
revolutions per day: | 14.90275378 |
mean anomaly at epoch: | 41.5271° |
orbit number at epoch: | 35685 |
The dashed part of the orbit path shows where the satellite is in the earth's shadow,
|
|